Augusta, ME

4:19 AM EDT on May 25, 2017 (GMT -0400)
Augusta State

Weather History for KAUG - January, 2013

Change the Weather History Date:

Monday, January 14, 2013

  Actual Average Record
Temperature  
Mean Temperature 44 °F 19 °F  
Max Temperature 53 °F 27 °F 55 °F (2013)
Min Temperature 35 °F 11 °F -22 °F (1957)
Degree Days  
Heating Degree Days 21 46  
Month to date heating degree days 635  
Since 1 July heating degree days 3390  
Cooling Degree Days 0 0  
Month to date cooling degree days 0  
Year to date cooling degree days 0  
Moisture  
Dew Point 37 °F    
Average Humidity 83    
Maximum Humidity 100    
Minimum Humidity 42    
Precipitation  
Precipitation 0.03 in 0.09 in 1.81 in (1978)
Month to date precipitation 1.17  
Year to date precipitation 1.17  
Sea Level Pressure  
Sea Level Pressure 29.97 in    
Wind  
Wind Speed 5 mph (West)    
Max Wind Speed 21 mph    
Max Gust Speed 33 mph    
Visibility 5 miles    
Events Fog , Rain    
T = Trace of Precipitation, MM = Missing Value Source: NWS Daily Summary

Daily Weather History Graph

Daily Weather History Graph

Search for Another Location

Airport or City:

Trip Planner

Search our weather history database for the weather conditions in past years. The results will help you decide how hot, cold, wet, or windy it might be!

Date:

Astronomy

Jan. 14, 2013 Rise Set
Actual Time 7:12 AM EST 4:25 PM EST
Civil Twilight 6:39 AM EST 4:57 PM EST
Nautical Twilight 6:03 AM EST 5:33 PM EST
Astronomical Twilight 5:29 AM EST 6:08 PM EST
Moon 8:34 AM EST (1/14) 8:17 PM EST (1/14)
Length of Visible Light 10h 17m
Length of Day
9h 12m
Waxing Crescent, 11% of the Moon is Illuminated
Jan 14
Waxing Crescent
Jan 18
First Quarter
Jan 26
Full
Feb 3
Last Quarter
Feb 10
New

Hourly Weather History & Observations

Time (EST) Temp. Windchill Dew Point Humidity Pressure Visibility Wind Dir Wind Speed Gust Speed Precip Events Conditions
12:53 AM 42.1 °F 38.4 °F 42.1 °F 100% 29.94 in 0.2 mi SSW 5.8 mph - N/A Fog Fog
1:29 AM 42.8 °F - 42.8 °F 100% 29.93 in 0.2 mi Calm Calm - N/A Fog Fog
1:53 AM 43.0 °F - 42.1 °F 97% 29.94 in 0.2 mi Calm Calm - N/A Fog Fog
2:53 AM 42.1 °F 40.2 °F 41.0 °F 96% 29.93 in 0.2 mi South 3.5 mph - N/A Fog Fog
3:28 AM 42.8 °F - 42.8 °F 100% 29.89 in 0.2 mi Calm Calm - N/A Fog Fog
3:53 AM 42.1 °F - 41.0 °F 96% 29.89 in 0.2 mi Calm Calm - N/A Fog Fog
4:53 AM 42.1 °F 39.2 °F 42.1 °F 100% 29.88 in 0.2 mi SSW 4.6 mph - N/A Fog Fog
5:53 AM 42.1 °F 36.6 °F 42.1 °F 100% 29.89 in 0.2 mi West 9.2 mph - 0.02 in Fog , Rain Light Rain
6:53 AM 42.1 °F 39.2 °F 42.1 °F 100% 29.87 in 0.2 mi South 4.6 mph - 0.00 in Fog Fog
7:53 AM 42.1 °F 37.1 °F 42.1 °F 100% 29.85 in 0.2 mi South 8.1 mph - 0.00 in Fog Fog
8:53 AM 42.1 °F 40.2 °F 42.1 °F 100% 29.89 in 0.2 mi West 3.5 mph - N/A Fog Fog
9:06 AM 42.8 °F 40.1 °F 42.8 °F 100% 29.87 in 0.5 mi West 4.6 mph - N/A Fog Fog
9:17 AM 42.8 °F 40.1 °F 42.8 °F 100% 29.87 in 0.2 mi Variable 4.6 mph - N/A Fog Fog
9:24 AM 42.8 °F 41.1 °F 42.8 °F 100% 29.87 in 1.0 mi SSW 3.5 mph - N/A   Overcast
9:41 AM 42.8 °F 40.1 °F 42.8 °F 100% 29.88 in 2.5 mi Variable 4.6 mph - N/A   Overcast
9:48 AM 42.8 °F 40.1 °F 42.8 °F 100% 29.88 in 3.0 mi SSW 4.6 mph - N/A   Overcast
9:53 AM 43.0 °F 39.5 °F 43.0 °F 100% 29.89 in 3.0 mi SSW 5.8 mph - N/A   Overcast
10:53 AM 44.1 °F 41.5 °F 43.0 °F 96% 29.89 in 4.0 mi Variable 4.6 mph - N/A   Overcast
11:44 AM 46.4 °F - 44.6 °F 93% 29.88 in 10.0 mi Calm Calm - N/A   Scattered Clouds
11:53 AM 48.0 °F - 46.0 °F 93% 29.88 in 10.0 mi Calm Calm - N/A   Clear
12:53 PM 53.1 °F - 46.0 °F 77% 29.91 in 10.0 mi WNW 4.6 mph - N/A   Clear
1:53 PM 53.1 °F - 41.0 °F 64% 29.97 in 10.0 mi NW 11.5 mph 18.4 mph N/A   Clear
2:53 PM 50.0 °F - 32.0 °F 50% 30.01 in 10.0 mi NNW 16.1 mph 25.3 mph N/A   Clear
3:53 PM 46.0 °F 38.3 °F 24.1 °F 42% 30.06 in 10.0 mi NW 20.7 mph 33.4 mph 0.01 in   Clear
4:53 PM 42.8 °F 36.6 °F 24.8 °F 49% 30.10 in 10.0 mi NW 11.5 mph 21.9 mph N/A   Clear
5:53 PM 39.0 °F 34.0 °F 25.0 °F 57% 30.13 in 10.0 mi NW 6.9 mph - N/A   Clear
6:53 PM 37.0 °F 32.4 °F 24.1 °F 59% 30.13 in 10.0 mi WNW 5.8 mph - N/A   Clear
7:53 PM 35.1 °F 29.3 °F 24.1 °F 64% 30.19 in 10.0 mi WNW 6.9 mph - N/A   Clear
8:53 PM 36.0 °F 28.0 °F 21.9 °F 57% 30.19 in 10.0 mi NW 11.5 mph - N/A   Clear
9:53 PM 36.0 °F 29.0 °F 21.9 °F 57% 30.19 in 10.0 mi NNW 9.2 mph - N/A   Clear
10:53 PM 35.1 °F 26.4 °F 21.0 °F 57% 30.19 in 10.0 mi NNW 12.7 mph - N/A   Clear
11:53 PM 35.1 °F 28.6 °F 21.0 °F 57% 30.19 in 10.0 mi NW 8.1 mph - N/A   Clear